| time (UTC) | temp F | wind direction | speed MPH | gust MPH | rain 1hr in | rain 24hr in | rain mn in | humidity % | barometer mb |
| 20260508080949 | 69 | 0.0 | 0.0 | 0.00 | 0.00 | 0.00 | 52 | 1003.1 | |
| 20260508075452 | 69 | 0.0 | 0.0 | 0.00 | 0.00 | 0.00 | 53 | 1003.0 | |
| 20260508074126 | 69 | 0.0 | 0.0 | 0.00 | 0.00 | 0.00 | 52 | 1002.9 | |
| 20260508072730 | 69 | 0.0 | 0.0 | 0.00 | 0.00 | 0.00 | 52 | 1002.8 | |
| 20260508071310 | 69 | 0.0 | 0.0 | 0.00 | 0.00 | 0.00 | 52 | 1002.5 | |
| 20260508070104 | 69 | 0.0 | 0.0 | 0.00 | 0.00 | 0.00 | 52 | 1002.5 | |
| 20260508064643 | 69 | 0.0 | 0.0 | 0.00 | 0.00 | 0.00 | 51 | 1002.6 | |
| 20260508063333 | 69 | 0.0 | 0.0 | 0.00 | 0.00 | 0.00 | 51 | 1002.4 | |
| 20260508062038 | 69 | 0.0 | 0.0 | 0.00 | 0.00 | 0.00 | 51 | 1002.3 | |
| 20260508060548 | 69 | 0.0 | 0.0 | 0.00 | 0.00 | 0.00 | 51 | 1002.4 | |
| 20260508055222 | 69 | 0.0 | 0.0 | 0.00 | 0.00 | 0.00 | 51 | 1002.6 | |
| 20260508053852 | 69 | 0.0 | 0.0 | 0.00 | 0.00 | 0.00 | 51 | 1002.3 | |
| 20260508052423 | 69 | 0.0 | 0.0 | 0.00 | 0.00 | 0.00 | 52 | 1002.8 | |
| 20260508051005 | 69 | 0.0 | 0.0 | 0.00 | 0.00 | 0.00 | 52 | 1002.7 | |
| 20260508045722 | 69 | 0.0 | 0.0 | 0.00 | 0.00 | 0.00 | 51 | 1002.8 | |
| 20260508044347 | 69 | 0.0 | 0.0 | 0.00 | 0.00 | 0.00 | 55 | 1002.8 | |
| 20260508043008 | 69 | 0.0 | 0.0 | 0.00 | 0.00 | 0.00 | 55 | 1002.8 | |
| 20260508041548 | 69 | 0.0 | 0.0 | 0.00 | 0.00 | 0.00 | 55 | 1002.7 | |
| 20260508040117 | 69 | 0.0 | 0.0 | 0.00 | 0.00 | 0.00 | 56 | 1002.8 | |
| 20260508034735 | 69 | 0.0 | 0.0 | 0.00 | 0.00 | 0.00 | 57 | 1002.8 | |
| 20260508033258 | 69 | 0.0 | 0.0 | 0.00 | 0.00 | 0.00 | 58 | 1002.7 | |
| 20260508031858 | 69 | 0.0 | 0.0 | 0.00 | 0.00 | 0.00 | 58 | 1003.1 | |
| 20260508030433 | 69 | 0.0 | 0.0 | 0.00 | 0.00 | 0.00 | 59 | 1003.4 | |
| 20260508025148 | 69 | 0.0 | 0.0 | 0.00 | 0.00 | 0.00 | 59 | 1003.3 | |
| 20260508023803 | 69 | 0.0 | 0.0 | 0.00 | 0.00 | 0.00 | 60 | 1003.3 | |
| 20260508022606 | 69 | 0.0 | 0.0 | 0.00 | 0.00 | 0.00 | 60 | 1003.4 | |
| 20260508021324 | 69 | 0.0 | 0.0 | 0.00 | 0.00 | 0.00 | 61 | 1003.7 | |
| 20260508020053 | 69 | 0.0 | 0.0 | 0.00 | 0.00 | 0.00 | 61 | 1003.7 | |
| 20260508014705 | 69 | 0.0 | 0.0 | 0.00 | 0.00 | 0.00 | 61 | 1003.7 | |
| 20260508013342 | 69 | 0.0 | 0.0 | 0.00 | 0.00 | 0.00 | 62 | 1003.8 | |
| 20260508012044 | 69 | 0.0 | 0.0 | 0.00 | 0.00 | 0.00 | 61 | 1003.7 | |
| 20260508010611 | 68 | 0.0 | 0.0 | 0.00 | 0.00 | 0.00 | 63 | 1003.7 | |
| 20260508005325 | 68 | 0.0 | 0.0 | 0.00 | 0.00 | 0.00 | 64 | 1003.8 | |
| 20260508004058 | 68 | 0.0 | 0.0 | 0.00 | 0.00 | 0.00 | 64 | 1003.8 | |
| 20260508002613 | 68 | 0.0 | 0.0 | 0.00 | 0.00 | 0.00 | 64 | 1003.9 | |
| 20260508001119 | 68 | 0.0 | 0.0 | 0.00 | 0.00 | 0.00 | 65 | 1003.8 | |
| 20260507235838 | 68 | 0.0 | 0.0 | 0.00 | 0.00 | 0.00 | 65 | 1003.9 | |
| 20260507234500 | 68 | 0.0 | 0.0 | 0.00 | 0.00 | 0.00 | 65 | 1003.8 | |
| 20260507233142 | 68 | 0.0 | 0.0 | 0.00 | 0.00 | 0.00 | 65 | 1003.8 | |
| 20260507231724 | 68 | 0.0 | 0.0 | 0.00 | 0.00 | 0.00 | 65 | 1003.8 | |
| 20260507230237 | 68 | 0.0 | 0.0 | 0.00 | 0.00 | 0.00 | 66 | 1004.2 | |
| 20260507224815 | 68 | 0.0 | 0.0 | 0.00 | 0.00 | 0.00 | 66 | 1004.2 | |
| 20260507223407 | 68 | 0.0 | 0.0 | 0.00 | 0.00 | 0.00 | 67 | 1004.3 | |
| 20260507222119 | 68 | 0.0 | 0.0 | 0.00 | 0.00 | 0.00 | 68 | 1004.3 | |
| 20260507220912 | 68 | 0.0 | 0.0 | 0.00 | 0.00 | 0.00 | 66 | 1004.1 | |
| 20260507215645 | 68 | 0.0 | 0.0 | 0.00 | 0.00 | 0.00 | 65 | 1004.3 | |
| 20260507214407 | 66 | 0.0 | 0.0 | 0.00 | 0.00 | 0.00 | 65 | 1004.0 | |
| 20260507212945 | 68 | 0.0 | 0.0 | 0.00 | 0.00 | 0.00 | 64 | 1004.1 | |
| 20260507211505 | 68 | 0.0 | 0.0 | 0.00 | 0.00 | 0.00 | 64 | 1004.1 | |
| 20260507210212 | 68 | 0.0 | 0.0 | 0.00 | 0.00 | 0.00 | 64 | 1004.0 | |
| 20260507204956 | 68 | 0.0 | 0.0 | 0.00 | 0.00 | 0.00 | 63 | 1004.2 | |
| 20260507203753 | 68 | 0.0 | 0.0 | 0.00 | 0.00 | 0.00 | 63 | 1004.2 | |
| 20260507202521 | 68 | 0.0 | 0.0 | 0.00 | 0.00 | 0.00 | 64 | 1004.1 | |
| 20260507201302 | 68 | 0.0 | 0.0 | 0.00 | 0.00 | 0.00 | 63 | 1003.7 | |
| 20260507195801 | 68 | 0.0 | 0.0 | 0.00 | 0.00 | 0.00 | 64 | 1003.9 | |
| 20260507194513 | 68 | 0.0 | 0.0 | 0.00 | 0.00 | 0.00 | 64 | 1003.9 | |
| 20260507193202 | 68 | 0.0 | 0.0 | 0.00 | 0.00 | 0.00 | 63 | 1004.0 | |
| 20260507191712 | 68 | 0.0 | 0.0 | 0.00 | 0.00 | 0.00 | 63 | 1004.1 | |
| 20260507190217 | 68 | 0.0 | 0.0 | 0.00 | 0.00 | 0.00 | 63 | 1004.1 | |
| 20260507184930 | 68 | 0.0 | 0.0 | 0.00 | 0.00 | 0.00 | 63 | 1004.3 | |
| 20260507183644 | 68 | 0.0 | 0.0 | 0.00 | 0.00 | 0.00 | 63 | 1004.3 | |
| 20260507182250 | 68 | 0.0 | 0.0 | 0.00 | 0.00 | 0.00 | 63 | 1004.1 | |
| 20260507180821 | 68 | 0.0 | 0.0 | 0.00 | 0.00 | 0.00 | 63 | 1004.2 | |
| 20260507175518 | 68 | 0.0 | 0.0 | 0.00 | 0.00 | 0.00 | 63 | 1004.2 | |
| 20260507174227 | 68 | 0.0 | 0.0 | 0.00 | 0.00 | 0.00 | 63 | 1004.1 | |
| 20260507172956 | 68 | 0.0 | 0.0 | 0.00 | 0.00 | 0.00 | 63 | 1004.3 | |
| 20260507171541 | 68 | 0.0 | 0.0 | 0.00 | 0.00 | 0.00 | 63 | 1004.3 | |
| 20260507170233 | 68 | 0.0 | 0.0 | 0.00 | 0.00 | 0.00 | 63 | 1004.5 | |
| 20260507165000 | 68 | 0.0 | 0.0 | 0.00 | 0.00 | 0.00 | 63 | 1004.6 | |
| 20260507163628 | 68 | 0.0 | 0.0 | 0.00 | 0.00 | 0.00 | 63 | 1004.8 | |
| 20260507162318 | 68 | 0.0 | 0.0 | 0.00 | 0.00 | 0.00 | 63 | 1005.0 | |
| 20260507161032 | 68 | 0.0 | 0.0 | 0.00 | 0.00 | 0.00 | 63 | 1004.9 | |
| 20260507155735 | 68 | 0.0 | 0.0 | 0.00 | 0.00 | 0.00 | 63 | 1005.1 | |
| 20260507154436 | 69 | 0.0 | 0.0 | 0.00 | 0.00 | 0.00 | 63 | 1005.1 | |
| 20260507153043 | 69 | 0.0 | 0.0 | 0.00 | 0.00 | 0.00 | 63 | 1005.1 | |
| 20260507151651 | 69 | 0.0 | 0.0 | 0.00 | 0.00 | 0.00 | 63 | 1005.2 | |
| 20260507150331 | 69 | 0.0 | 0.0 | 0.00 | 0.00 | 0.00 | 63 | 1005.5 | |
| 20260507145022 | 69 | 0.0 | 0.0 | 0.00 | 0.00 | 0.00 | 63 | 1005.6 | |
| 20260507143748 | 69 | 0.0 | 0.0 | 0.00 | 0.00 | 0.00 | 62 | 1005.6 | |
| 20260507142547 | 69 | 0.0 | 0.0 | 0.00 | 0.00 | 0.00 | 63 | 1005.8 | |
| 20260507141053 | 69 | 0.0 | 0.0 | 0.00 | 0.00 | 0.00 | 62 | 1005.7 | |
| 20260507135733 | 69 | 0.0 | 0.0 | 0.00 | 0.00 | 0.00 | 62 | 1005.6 | |
| 20260507134321 | 69 | 0.0 | 0.0 | 0.00 | 0.00 | 0.00 | 62 | 1005.8 | |
| 20260507132908 | 69 | 0.0 | 0.0 | 0.00 | 0.00 | 0.00 | 62 | 1005.9 | |
| 20260507131648 | 69 | 0.0 | 0.0 | 0.00 | 0.00 | 0.00 | 62 | 1005.9 | |
| 20260507130355 | 69 | 0.0 | 0.0 | 0.00 | 0.00 | 0.00 | 62 | 1005.9 | |
| 20260507125012 | 69 | 0.0 | 0.0 | 0.00 | 0.00 | 0.00 | 62 | 1005.8 | |
| 20260507123742 | 69 | 0.0 | 0.0 | 0.00 | 0.00 | 0.00 | 61 | 1005.9 | |
| 20260507122333 | 69 | 0.0 | 0.0 | 0.00 | 0.00 | 0.00 | 61 | 1005.9 | |
| 20260507120926 | 69 | 0.0 | 0.0 | 0.00 | 0.00 | 0.00 | 61 | 1005.8 | |
| 20260507115444 | 69 | 0.0 | 0.0 | 0.00 | 0.00 | 0.00 | 61 | 1005.8 | |
| 20260507114238 | 69 | 0.0 | 0.0 | 0.00 | 0.00 | 0.00 | 60 | 1005.6 | |
| 20260507112947 | 69 | 0.0 | 0.0 | 0.00 | 0.00 | 0.00 | 60 | 1005.6 | |
| 20260507111533 | 69 | 0.0 | 0.0 | 0.00 | 0.00 | 0.00 | 60 | 1005.6 | |
| 20260507104900 | 69 | 0.0 | 0.0 | 0.00 | 0.00 | 0.00 | 61 | 1005.4 | |
| 20260507103538 | 69 | 0.0 | 0.0 | 0.00 | 0.00 | 0.00 | 62 | 1005.4 | |
| 20260507102106 | 69 | 0.0 | 0.0 | 0.00 | 0.00 | 0.00 | 62 | 1005.5 | |
| 20260507100748 | 69 | 0.0 | 0.0 | 0.00 | 0.00 | 0.00 | 62 | 1005.3 | |
| 20260507095311 | 69 | 0.0 | 0.0 | 0.00 | 0.00 | 0.00 | 63 | 1005.4 | |
| 20260507093903 | 69 | 0.0 | 0.0 | 0.00 | 0.00 | 0.00 | 63 | 1005.3 | |
| 20260507092610 | 69 | 0.0 | 0.0 | 0.00 | 0.00 | 0.00 | 63 | 1005.2 | |
| 20260507091212 | 69 | 0.0 | 0.0 | 0.00 | 0.00 | 0.00 | 63 | 1005.2 | |
| 20260507085907 | 69 | 0.0 | 0.0 | 0.00 | 0.00 | 0.00 | 62 | 1005.1 | |
| 20260507084704 | 69 | 0.0 | 0.0 | 0.00 | 0.00 | 0.00 | 62 | 1005.1 | |
| 20260507083307 | 69 | 0.0 | 0.0 | 0.00 | 0.00 | 0.00 | 61 | 1005.2 | |
| 20260507082030 | 69 | 0.0 | 0.0 | 0.00 | 0.00 | 0.00 | 61 | 1005.4 |